Location: Bijele Vode
(45.2833°N, 16.2000°E)
Time: 17:09:48
(UTC+00:00)

Cosmos 1707 - Pass Details

Date: 18 September 2020
Orbit: 515 x 531 km, 82.5° (Epoch: 20 October)

Event Time Altitude Azimuth Distance (km) Brightness Sun altitude
Rises 17:40:30 0° 1° (N) 2,651 6.4 -7.9°
Reaches altitude 10° 17:42:52 10° 12° (NNE) 1,756 5.4 -8.3°
Maximum altitude 17:46:16 29° 74° (ENE) 964 3.6 -8.9°
Drops below altitude 10° 17:49:38 10° 137° (SE) 1,739 4.9 -9.5°
Enters shadow 17:50:15 - 141° (SE) 1,963 5.2 -9.6°
